Wind_Speed
21 19 19 20 20 21 20 19 18 17 17 15 13 13 13 12 13 13 12 13 14 12 12 12 13 12 11 11 10 5 5 5 7 6 6 5 5 6 6 6 8 8
21 19 18 19 20 20 19 17 18 17 18 18 15 16 16 15 15 13 12 12 13 13 11 10 10 10 8 10 11 7 5 6 6 6 6 6 6 6 6 7 8 8
20 19 18 18 19 19 17 16 17 17 18 19 17 17 16 14 13 11 10 11 11 11 10 9 11 11 8 11 10 6 6 8 7 8 8 7 6 6 6 7 8 9
18 18 18 19 19 18 16 17 18 18 18 19 18 16 14 12 12 12 11 11 10 10 10 11 14 11 9 11 9 6 8 8 8 8 8 7 6 4 5 7 8 9
18 19 19 19 19 18 18 18 19 18 17 16 16 15 14 14 13 12 12 10 8 10 11 12 13 12 12 12 10 10 9 7 7 7 6 6 4 3 5 7 9 9
18 20 19 17 17 19 19 18 18 17 15 15 15 14 16 16 12 10 10 8 7 10 12 12 12 12 12 11 10 10 8 6 7 7 5 5 4 4 4 5 8 10
18 19 18 16 16 18 18 17 16 15 15 16 16 14 16 16 11 9 9 8 8 10 11 12 12 12 12 10 9 10 7 5 8 7 4 4 6 6 3 3 7 9
19 19 18 16 15 16 17 15 15 15 16 17 15 14 16 15 11 10 10 9 9 9 9 11 11 12 11 10 9 9 7 7 9 7 5 5 6 6 4 4 6 7
19 19 17 16 16 17 17 16 16 14 15 17 15 14 16 14 11 12 11 10 9 8 8 10 10 11 10 10 8 8 9 11 9 6 7 7 7 5 5 5 6 7
21 20 18 18 19 19 19 18 16 13 13 15 14 15 16 13 11 12 11 10 9 8 8 9 9 10 10 8 7 8 11 10 7 7 9 9 6 6 5 4 7 8
24 23 21 21 21 19 18 16 14 13 13 14 14 15 16 13 11 11 10 10 9 8 8 9 9 9 9 8 7 9 11 9 9 10 8 6 7 8 5 4 6 7
27 25 24 23 22 20 17 14 13 14 14 14 14 14 14 12 11 11 10 9 9 8 8 9 9 9 9 8 9 11 11 9 10 9 6 7 9 9 6 6 8 7
27 24 23 24 23 21 19 16 14 14 14 14 14 14 14 12 10 11 10 9 9 8 8 9 9 9 9 9 10 11 11 10 11 9 7 8 8 6 8 9 8 7
26 25 23 22 22 22 21 19 16 14 14 14 14 14 14 13 11 11 11 10 9 9 8 9 10 9 10 10 9 10 11 11 11 9 8 10 8 6 8 8 7 8
25 25 24 23 21 21 20 18 17 14 13 14 13 13 14 13 11 12 13 11 9 9 9 11 11 11 12 11 10 10 9 9 10 8 7 8 7 6 7 7 6 8
25 25 25 24 23 23 20 18 17 16 13 13 13 12 13 12 12 13 14 12 11 11 12 13 13 13 14 13 12 10 9 8 8 7 5 5 5 5 5 6 5 7
24 24 24 24 24 24 23 21 21 19 16 15 14 13 13 13 12 13 13 12 13 14 15 16 14 14 15 14 13 12 11 9 8 6 5 4 5 5 6 6 7 9
21 22 22 23 23 22 23 23 23 22 21 20 18 16 16 16 15 15 15 14 13 13 15 16 14 15 16 15 14 14 12 10 8 6 5 6 6 7 8 9 10 12
17 19 20 21 22 22 22 22 22 23 23 22 21 19 19 19 18 18 18 17 15 14 15 16 15 15 17 16 15 15 13 11 9 7 6 6 8 9 10 11 11 14
13 16 18 19 20 21 21 21 21 23 22 21 20 19 18 18 18 18 17 17 16 13 11 12 13 14 16 17 16 14 12 11 10 9 7 7 7 9 10 11 13 14
7 9 12 14 16 17 19 20 21 21 21 19 17 15 15 15 15 14 13 13 13 11 9 9 9 9 11 12 11 10 8 8 9 10 11 9 8 10 10 11 13 13
11 9 8 9 11 13 16 18 18 16 17 17 16 14 14 14 13 11 11 10 10 9 8 7 6 7 9 10 9 8 9 11 13 14 17 16 14 14 15 14 13 15
14 14 13 10 8 9 11 13 13 13 15 17 14 12 12 12 12 12 11 11 10 8 8 10 10 10 11 12 13 14 15 15 15 16 18 19 17 17 17 17 17 17
15 15 15 14 11 10 9 9 8 10 16 17 13 10 10 11 13 14 13 13 12 10 10 12 13 14 14 13 14 15 15 15 15 15 16 17 17 17 17 17 18 18
13 13 13 13 13 13 12 10 9 9 13 16 13 11 11 12 14 15 14 13 12 10 10 11 11 12 13 13 13 14 14 15 16 16 16 16 16 16 16 17 16 14
14 14 13 11 11 13 13 13 13 11 11 12 12 12 13 13 13 13 13 14 12 10 9 10 11 12 13 13 14 14 14 15 15 15 15 15 15 15 14 14 15 14
Wind_Direction
177 174 176 172 168 165 159 155 157 157 160 166 166 162 168 171 163 168 179 168 163 172 174 182 185 174 176 167 147 174 212 169 164 166 162 163 155 160 166 164 171 172
176 174 176 174 168 160 151 151 157 158 162 167 165 167 177 179 172 180 180 167 176 187 188 200 187 168 170 153 145 175 184 149 149 143 139 142 137 141 149 162 174 167
175 174 176 173 163 151 148 157 162 163 167 169 170 176 184 180 167 166 163 165 183 188 184 177 153 144 151 147 153 172 147 133 133 128 131 130 122 126 134 152 168 159
172 172 173 168 156 150 159 168 167 166 169 169 173 180 178 168 160 155 158 171 174 166 165 153 138 138 143 142 147 141 126 129 133 128 127 122 118 131 132 140 152 148
171 168 167 163 157 161 168 171 172 175 175 172 175 178 165 156 162 166 168 171 162 155 155 144 139 144 141 137 142 138 135 143 130 113 116 124 134 143 132 141 147 146
167 162 161 161 165 170 172 173 177 178 175 170 169 172 163 155 164 173 164 153 148 149 147 142 146 147 138 140 147 134 129 135 120 109 114 119 114 108 118 155 153 150
166 165 163 162 169 174 172 174 176 173 174 172 170 172 163 155 164 165 145 137 139 141 146 148 146 143 138 141 136 119 116 128 116 112 121 114 110 114 130 170 151 154
167 167 160 158 167 168 164 168 174 175 174 168 168 170 157 152 165 155 136 140 141 139 151 150 143 145 143 138 133 129 142 138 113 114 140 131 122 129 148 149 143 155
169 170 163 162 168 165 162 168 174 176 170 162 162 159 150 154 165 149 137 146 145 145 153 146 146 151 139 137 152 159 148 129 117 144 149 117 114 132 138 138 146 151
173 173 168 169 172 171 172 177 179 176 165 160 160 151 149 159 162 146 143 147 145 148 147 143 153 152 137 145 165 156 140 130 134 152 128 104 116 139 135 139 145 144
170 169 168 169 170 177 184 183 177 166 154 152 153 150 153 159 154 146 147 147 145 148 144 146 156 150 143 154 153 138 135 135 135 132 121 122 132 128 127 133 127 127
167 169 172 169 167 178 184 178 166 155 149 149 149 152 154 153 150 150 150 148 148 149 148 150 153 149 148 150 143 137 136 140 140 133 137 151 135 124 125 119 118 127
169 170 170 166 169 175 172 166 164 157 152 151 151 155 155 151 156 156 150 149 149 151 156 153 149 148 150 147 143 142 144 150 150 142 142 142 134 135 138 128 135 145
167 168 167 166 171 172 167 165 163 156 154 154 154 159 153 150 162 160 148 149 152 154 158 154 149 151 152 151 153 155 157 159 154 148 149 145 142 150 147 141 154 158
168 169 167 167 168 167 165 165 158 153 160 161 160 163 153 150 162 160 149 148 151 153 156 157 160 163 162 159 162 162 160 158 155 155 164 159 152 159 160 152 160 175
172 173 170 169 168 163 160 161 157 155 160 162 164 162 152 152 162 158 149 148 151 153 159 168 173 172 168 168 169 165 158 160 164 163 172 177 169 184 192 172 178 208
175 177 175 173 171 166 162 163 162 158 158 163 166 159 151 152 157 156 155 158 160 159 162 173 179 175 173 176 177 172 165 167 175 169 177 204 204 213 224 209 210 231
176 180 180 178 176 174 170 168 165 163 165 169 167 161 157 156 156 159 162 164 168 172 174 179 183 178 179 182 183 182 179 177 177 170 182 220 229 226 234 235 231 236
179 180 182 183 183 179 176 174 172 170 170 170 168 165 162 162 163 165 164 162 168 178 185 187 187 184 186 189 189 190 191 189 184 178 186 218 239 242 248 259 258 253
183 186 187 190 190 184 180 179 177 176 173 170 169 167 164 165 168 170 167 166 170 177 184 188 189 188 189 193 197 201 206 208 208 212 216 226 251 264 266 271 272 269
153 179 189 194 195 190 185 182 181 181 178 173 172 173 174 175 175 173 172 175 179 181 178 175 175 178 184 192 202 211 224 244 256 261 260 256 262 274 278 278 278 283
116 132 154 173 183 184 184 184 185 185 182 180 178 175 175 176 172 167 169 178 184 183 185 187 182 185 194 203 214 228 248 268 276 276 275 274 271 272 276 277 277 283
116 123 127 134 151 163 170 179 186 188 185 182 178 173 172 175 177 178 182 194 202 202 211 222 223 222 224 227 236 247 258 264 266 264 267 271 272 272 275 276 276 280
103 111 115 117 124 129 137 153 166 180 182 176 167 169 181 191 198 201 205 211 217 221 223 224 226 231 237 240 244 252 258 260 264 264 264 267 270 272 276 279 281 284
92 97 105 114 122 122 123 129 133 153 176 178 176 183 196 204 208 211 213 217 222 228 229 229 231 235 239 242 245 251 255 257 262 265 267 269 272 274 279 281 285 290
93 91 93 101 117 125 125 127 126 129 150 171 185 197 204 206 208 212 217 222 228 232 233 237 242 244 245 249 253 256 258 260 261 263 265 270 275 280 287 291 292 293
Height
1502 1505 1508 1510 1513 1515 1518 1521 1523 1526 1528 1530 1532 1534 1535 1535 1536 1536 1537 1538 1538 1539 1540 1541 1542 1543 1544 1546 1547 1549 1549 1550 1551 1551 1551 1552 1552 1552 1553 1554 1554 1555
1503 1506 1509 1512 1514 1517 1519 1522 1524 1526 1528 1530 1532 1533 1534 1535 1536 1536 1537 1538 1538 1539 1539 1540 1541 1542 1544 1546 1547 1548 1549 1550 1550 1550 1551 1551 1551 1552 1552 1553 1554 1555
1506 1508 1511 1514 1516 1518 1520 1523 1525 1527 1528 1530 1532 1533 1534 1535 1536 1536 1537 1538 1538 1538 1539 1540 1541 1542 1544 1545 1547 1548 1549 1549 1550 1550 1550 1550 1551 1551 1552 1553 1554 1555
1508 1510 1513 1515 1518 1519 1521 1523 1525 1526 1528 1529 1530 1532 1533 1534 1536 1537 1537 1537 1537 1538 1539 1539 1541 1542 1544 1545 1547 1548 1549 1549 1549 1550 1550 1550 1551 1551 1551 1552 1553 1555
1509 1512 1514 1517 1518 1520 1521 1522 1523 1525 1527 1529 1530 1531 1533 1534 1536 1536 1537 1537 1537 1538 1539 1540 1541 1543 1544 1545 1546 1547 1548 1549 1549 1550 1550 1551 1551 1551 1552 1552 1553 1554
1511 1513 1515 1517 1518 1519 1521 1522 1523 1524 1526 1528 1530 1531 1533 1534 1535 1535 1536 1536 1537 1538 1539 1541 1542 1543 1544 1545 1545 1546 1547 1548 1549 1550 1550 1551 1551 1552 1552 1553 1554 1554
1512 1514 1515 1517 1519 1520 1521 1522 1523 1524 1526 1528 1529 1531 1532 1534 1535 1535 1536 1537 1537 1538 1540 1541 1542 1543 1544 1544 1545 1546 1547 1548 1549 1550 1551 1551 1552 1553 1553 1553 1554 1555
1514 1515 1516 1518 1521 1522 1523 1524 1524 1525 1526 1528 1529 1530 1532 1534 1534 1535 1536 1537 1538 1539 1540 1541 1542 1543 1544 1544 1545 1546 1546 1547 1549 1550 1551 1551 1552 1553 1554 1554 1554 1555
1514 1515 1517 1520 1522 1524 1525 1525 1525 1525 1527 1528 1529 1530 1532 1534 1534 1535 1536 1538 1538 1539 1540 1541 1542 1543 1543 1544 1545 1545 1546 1547 1549 1550 1551 1552 1553 1553 1554 1554 1555 1556
1512 1514 1516 1519 1523 1524 1525 1525 1525 1525 1526 1528 1529 1530 1532 1534 1534 1535 1536 1537 1538 1539 1540 1540 1541 1542 1543 1544 1544 1545 1546 1547 1548 1550 1551 1552 1553 1554 1554 1555 1556 1556
1511 1514 1516 1519 1523 1524 1524 1525 1525 1525 1526 1527 1528 1530 1532 1533 1534 1535 1536 1537 1538 1539 1540 1541 1541 1542 1543 1544 1544 1545 1547 1548 1549 1550 1551 1552 1553 1554 1555 1556 1556 1557
1510 1513 1516 1518 1521 1523 1523 1524 1525 1525 1526 1527 1529 1530 1531 1533 1534 1535 1536 1537 1538 1539 1540 1541 1542 1543 1544 1544 1545 1546 1547 1548 1550 1551 1552 1552 1554 1555 1556 1557 1557 1558
1510 1513 1515 1517 1519 1520 1522 1523 1524 1525 1526 1527 1529 1530 1531 1533 1534 1535 1536 1538 1539 1540 1541 1541 1542 1544 1545 1545 1546 1547 1548 1549 1550 1551 1552 1553 1555 1555 1556 1557 1558 1559
1509 1512 1514 1515 1517 1519 1521 1522 1523 1525 1526 1528 1529 1530 1531 1532 1533 1535 1536 1538 1539 1540 1541 1543 1544 1545 1546 1547 1547 1548 1548 1549 1550 1552 1553 1554 1555 1556 1557 1558 1559 1559
1508 1510 1512 1514 1516 1518 1520 1521 1522 1524 1526 1527 1529 1529 1531 1532 1533 1535 1536 1538 1540 1541 1542 1543 1544 1545 1546 1547 1548 1548 1549 1550 1551 1552 1553 1554 1555 1556 1557 1558 1559 1559
1506 1508 1511 1513 1514 1516 1518 1520 1522 1524 1526 1528 1529 1529 1531 1532 1533 1535 1537 1539 1540 1541 1542 1542 1543 1545 1546 1547 1548 1549 1550 1551 1552 1553 1554 1555 1556 1557 1557 1559 1559 1559
1506 1507 1510 1512 1514 1515 1517 1518 1521 1523 1525 1527 1528 1530 1531 1533 1534 1536 1537 1538 1539 1540 1540 1541 1543 1544 1545 1547 1548 1549 1550 1551 1552 1553 1554 1555 1556 1557 1558 1559 1559 1559
1505 1507 1509 1512 1514 1516 1517 1518 1520 1522 1524 1525 1527 1529 1531 1532 1534 1535 1536 1537 1538 1539 1539 1541 1543 1544 1545 1546 1547 1548 1550 1551 1552 1553 1554 1556 1557 1558 1558 1558 1558 1558
1506 1507 1509 1512 1515 1516 1517 1518 1520 1522 1524 1525 1527 1529 1530 1532 1533 1534 1535 1536 1537 1538 1539 1541 1542 1544 1545 1546 1547 1549 1550 1551 1552 1553 1554 1555 1556 1557 1557 1557 1557 1558
1506 1508 1509 1512 1515 1517 1518 1519 1520 1522 1524 1525 1527 1530 1531 1533 1534 1534 1535 1536 1537 1538 1540 1541 1543 1544 1545 1546 1548 1549 1550 1551 1553 1553 1554 1555 1556 1556 1557 1558 1557 1558
1507 1509 1510 1513 1515 1517 1519 1520 1520 1521 1524 1526 1527 1530 1532 1534 1535 1535 1536 1537 1538 1539 1541 1542 1543 1544 1545 1547 1548 1549 1550 1551 1552 1553 1553 1555 1555 1555 1556 1556 1556 1556
1509 1510 1512 1513 1515 1516 1518 1520 1521 1522 1525 1526 1528 1530 1533 1534 1535 1535 1536 1538 1539 1540 1541 1542 1543 1544 1545 1547 1548 1548 1549 1550 1551 1552 1553 1554 1554 1554 1554 1554 1555 1555
1511 1512 1512 1514 1515 1516 1518 1520 1521 1523 1525 1527 1529 1531 1533 1534 1535 1535 1536 1538 1539 1541 1542 1542 1543 1544 1545 1546 1547 1548 1549 1549 1550 1550 1551 1552 1552 1552 1552 1552 1553 1553
1513 1513 1513 1514 1515 1517 1518 1520 1522 1524 1525 1527 1529 1531 1532 1533 1534 1535 1536 1538 1539 1540 1541 1542 1543 1544 1545 1545 1546 1547 1547 1548 1548 1549 1549 1550 1550 1550 1550 1550 1551 1551
1515 1515 1515 1516 1516 1517 1519 1521 1522 1524 1525 1527 1529 1531 1532 1532 1533 1534 1536 1537 1538 1539 1540 1541 1542 1543 1543 1544 1545 1545 1546 1546 1547 1547 1548 1548 1549 1549 1549 1549 1549 1549
1516 1517 1517 1518 1518 1519 1520 1522 1523 1524 1526 1527 1529 1530 1531 1532 1533 1534 1535 1537 1538 1539 1540 1540 1541 1542 1542 1543 1544 1544 1545 1545 1545 1546 1546 1547 1547 1547 1547 1547 1548 1549